Regional Weather Roundup
Issued by NWS

Home | Current Version | Previous Version | Graphics & Text | Print | Product List | Glossary Off
Versions: 1 2 3 4 5 6 7 8 9 10 11 12 13 14 15 16 17 18 19 20 21 22 23 24 25 26 27 28 29 30 31 32 33 34 35 36 37 38 39 40 41 42 43 44 45 46 47 48 49 50

550
ASUS43 KDTX 260110
RWRMI
MICHIGAN HOURLY REGIONAL WEATHER ROUNDUP
NATIONAL WEATHER SERVICE DETROIT/PONTIAC MI
900 PM EDT THU AUG 25 2016

NOTE: "FAIR" INDICATES FEW OR NO CLOUDS BELOW 12,000 FEET WITH NO
SIGNIFICANT WEATHER AND/OR OBSTRUCTION TO VISIBILITY.

MIZ047>049-052>055-059>063-066>070-074>076-081>083-260200-
SOUTHEAST LOWER MICHIGAN

CITY           SKY/WX    TMP DP  RH WIND       PRES   REMARKS
ADRIAN         CLEAR     76  70  82 W5        30.02R
ALMA           CLEAR     71  64  79 W7        30.01R
ANN ARBOR      CLEAR     74  70  87 W6        30.01R
BAD AXE        CLEAR     69  66  91 S3        29.97R FOG
CARO           CLEAR     72  67  84 W3        29.97R
DETROIT CITY   CLEAR     80  69  69 W6        29.99R
DETROIT        PTCLDY    78  70  76 W7        30.00R
FLINT          CLEAR     77  66  68 W10       30.00R
GROSSE ILE     MOCLDY    80  69  70 NW5       29.99R
HILLSDALE      CLEAR     73  67  82 W5        30.03S
HOWELL         CLEAR     73  66  80 W5        30.01R

CITY           SKY/WX    TMP DP  RH WIND       PRES   REMARKS
JACKSON        CLEAR     74  68  81 W10       30.03R
LAMBERTVILLE   CLEAR     79  69  72 W6        30.01S
LANSING        CLEAR     73  59  61 W7        30.02R
LAPEER         FAIR      74  71  89 W5        29.99R
MASON          CLEAR     73  64  73 W10       30.03R
MONROE         CLEAR     76  70  81 W5        29.99S
MT. CLEMENS    PTCLDY    78  69  73 W5        29.97R
PONTIAC        PTCLDY    76  69  79 W8        29.99R
PORT HURON     CLEAR     72  72 100 CALM      29.98R FOG
TRI CITIES     CLEAR     72  65  78 W8        29.98R
MIDLAND        FAIR      73  62  67 W5        29.98R
TROY           PTCLDY    80  69  68 W6        30.01R
SAGINAW HB     CLEAR     73  63  68 W7        29.98R
$$
MIZ043>046-050>051-056>058-064>065-071>073-077>080-260200-
SOUTHWEST LOWER MICHIGAN

CITY           SKY/WX    TMP DP  RH WIND       PRES   REMARKS
BATTLE CREEK   CLEAR     68  65  90 W3        30.04R
BENTON HARBOR  CLOUDY    70  65  84 CALM      30.03S
BIG RAPIDS     CLEAR     68  57  67 CALM      30.03R
COLDWATER      CLEAR     73  67  82 W3        30.04R
FREMONT        FAIR      67  58  72 W3        30.02S
HOLLAND        CLOUDY    69  64  84 CALM      30.04R
GRAND RAPIDS   CLOUDY    71  60  68 W8        30.03R
IONIA          FAIR      69  59  69 W5        30.02R
KALAMAZOO      CLEAR     71  62  73 W3        30.04R
LUDINGTON      MOCLDY    69  64  84 SW6       30.00S
MARSHALL       CLEAR     72  68  88 W6        30.03R
MOUNT PLEASANT CLEAR     72  61  68 W5        30.00R
MUSKEGON       MOCLDY    68  64  87 CALM      30.03R
SOUTH HAVEN    CLEAR     70  67  93 CALM      30.03S
$$
MIZ016>042-260200-
NORTHERN LOWER MICHIGAN

CITY           SKY/WX    TMP DP  RH WIND       PRES   REMARKS
ALPENA         CLEAR     73  56  54 W6        29.97R
BEAVER ISLAND  CLEAR     69  63  82 SW8       29.94F
BELLAIRE       CLEAR     65  59  82 CALM      29.97S
CADILLAC       CLEAR     65  55  69 SW3       30.02S
CHARLEVOIX     CLEAR     69  59  70 SW7       29.99R
FRANKFORT      CLEAR     71  63  75 SW3       29.98S
GAYLORD        CLEAR     67  54  63 W3        29.99R
GRAYLING       CLEAR     67  56  67 SW3       30.01R
HARBOR SPRINGS CLEAR     70  61  72 W3        29.96R
HOUGHTON LAKE  CLEAR     71  55  56 NW13G22   30.01R
MANISTEE       CLEAR     69  62  78 CALM      29.99S
OSCODA         CLEAR     71  62  74 W5        29.94R
PELLSTON       CLEAR     68  59  73 CALM      29.96S
ROGERS CITY    CLEAR     69  56  64 W6        29.97R
TRAVERSE CITY  PTCLDY    71  58  63 SW3       29.97S
$$
MIZ007>008-015-260200-
EASTERN UPPER MICHIGAN

CITY           SKY/WX    TMP DP  RH WIND       PRES   REMARKS
KINROSS        MOCLDY    66  58  75 CALM      29.95R
MACKINAC ISLAN CLEAR     69  62  78 SW9       29.94S
NEWBERRY       PTCLDY    64  59  85 S3        29.93F
S. S. MARIE    CLEAR     64  56  75 SW3       29.94R
MUNISING         N/A     70  60  70 N8        29.93R
$$
MIZ004>006-011>014-085-260200-
CENTRAL UPPER MICHIGAN

CITY           SKY/WX    TMP DP  RH WIND       PRES   REMARKS
MANISTIQUE     CLEAR     66  64  92 S6        29.92S
ESCANABA       CLEAR     71  59  65 SW6       29.93R
MENOMINEE      CLEAR    N/A N/A N/A W3        29.96R
SAWYER-GWINN   MOCLDY    68  55  64 NE13      29.95R
$$
MIZ001>003-009>011-084-260200-
WESTERN UPPER MICHIGAN

CITY           SKY/WX    TMP DP  RH WIND       PRES   REMARKS
IRON MOUNTAIN  CLEAR     70  54  56 W6        29.95R
HOUGHTON       CLEAR     65  55  70 W16G25    29.93S
COPPER HARBOR    N/A     67  56  67 NW9G20    29.90R
IRONWOOD       CLEAR     62  53  72 W7        30.01R
$$

ABBREVIATIONS USED IN REMARKS
   TC - TEMPERATURE IN CELSIUS
  WCI - WIND CHILL INDEX
   HX - HEAT INDEX
  VSB - VISIBILITY





USA.gov is the U.S. government's official web portal to all federal, state and local government web resources and services.